Norfolk, NE

2:40 PM CDT on July 25, 2017 (GMT -0500)
Stefan Memorial

Weather History for KOFK - January, 2012

Change the Weather History Date:

Friday, January 27, 2012

  Actual Average Record
Temperature  
Mean Temperature 34 °F 23 °F  
Max Temperature 43 °F 34 °F 66 °F (1934)
Min Temperature 25 °F 12 °F -29 °F (1902)
Degree Days  
Heating Degree Days 31 42  
Month to date heating degree days 989 1153  
Since 1 July heating degree days 3473 3859  
Cooling Degree Days 0 0  
Month to date cooling degree days 0 0  
Year to date cooling degree days 0 0  
Moisture  
Dew Point 22 °F    
Average Humidity 68    
Maximum Humidity 92    
Minimum Humidity 43    
Precipitation  
Precipitation T in 0.02 in 1.01 in (1944)
Month to date precipitation 0.18 0.50  
Year to date precipitation 0.18 0.50  
Snow  
Snow T in 0.20 in - ()
Month to date snowfall 2.1 5.5  
Since 1 July snowfall 10.2 16.4  
Snow Depth T in    
Sea Level Pressure  
Sea Level Pressure 30.01 in    
Wind  
Wind Speed 12 mph (WNW)    
Max Wind Speed 32 mph    
Max Gust Speed 40 mph    
Visibility 10 miles    
Events      
T = Trace of Precipitation, MM = Missing Value Source: NWS Daily Summary

Daily Weather History Graph

Daily Weather History Graph

Search for Another Location

Airport or City:

Trip Planner

Search our weather history database for the weather conditions in past years. The results will help you decide how hot, cold, wet, or windy it might be!

Date:

Astronomy

Jan. 27, 2012 Rise Set
Actual Time 7:47 AM CST 5:37 PM CST
Civil Twilight 7:17 AM CST 6:07 PM CST
Nautical Twilight 6:43 AM CST 6:41 PM CST
Astronomical Twilight 6:10 AM CST 7:14 PM CST
Moon 9:37 AM CST (1/27) 10:36 PM CST (1/27)
Length of Visible Light 10h 50m
Length of Day
9h 50m
Waxing Crescent, 20% of the Moon is Illuminated
Jan 27
Waxing Crescent
Jan 30
First Quarter
Feb 7
Full
Feb 14
Last Quarter
Feb 21
New

Hourly Weather History & Observations

Time (CST) Temp. Windchill Dew Point Humidity Pressure Visibility Wind Dir Wind Speed Gust Speed Precip Events Conditions
1:56 AM 28.9 °F 22.8 °F 21.9 °F 75% 29.90 in 10.0 mi Variable 5.8 mph - N/A   Overcast
3:56 AM 32.0 °F 26.4 °F 24.1 °F 73% 29.86 in 10.0 mi East 5.8 mph - 0.00 in   Overcast
4:56 AM 32.0 °F 23.6 °F 27.0 °F 82% 29.84 in 10.0 mi ESE 10.4 mph - N/A   Overcast
5:56 AM 30.9 °F 27.5 °F 27.0 °F 85% 29.88 in 10.0 mi SSE 3.5 mph - N/A   Overcast
7:56 AM 34.0 °F 25.0 °F 24.1 °F 67% 29.89 in 10.0 mi South 12.7 mph - N/A   Overcast
8:56 AM 34.0 °F 24.6 °F 19.9 °F 56% 29.90 in 10.0 mi South 13.8 mph - N/A   Clear
9:56 AM 35.1 °F 27.4 °F 21.0 °F 57% 29.95 in 10.0 mi WSW 10.4 mph - N/A   Overcast
10:56 AM 37.0 °F 31.0 °F 21.9 °F 54% 29.97 in 10.0 mi West 8.1 mph - N/A   Overcast
12:56 PM 39.9 °F 30.5 °F 27.0 °F 60% 29.96 in 10.0 mi NW 19.6 mph 32.2 mph N/A   Overcast
1:24 PM 39.2 °F 28.5 °F 28.4 °F 65% 29.92 in 10.0 mi NW 24.2 mph 35.7 mph N/A   Overcast
1:32 PM 41.0 °F 30.9 °F 28.4 °F 61% 29.93 in 10.0 mi NW 24.2 mph 34.5 mph N/A   Overcast
1:42 PM 39.2 °F 29.0 °F 28.4 °F 65% 29.93 in 10.0 mi NW 21.9 mph 31.1 mph N/A   Overcast
1:56 PM 39.9 °F 28.2 °F 27.0 °F 60% 29.97 in 10.0 mi NNW 31.1 mph 40.3 mph N/A   Overcast
2:41 PM 37.4 °F 25.9 °F 24.8 °F 60% 29.95 in 10.0 mi NW 25.3 mph - N/A   Overcast
2:56 PM 37.0 °F 25.1 °F 25.0 °F 62% 30.01 in 10.0 mi NW 26.5 mph 34.5 mph N/A   Overcast
3:56 PM 37.9 °F 26.6 °F 21.0 °F 51% 30.04 in 10.0 mi NNW 25.3 mph 32.2 mph N/A   Partly Cloudy
4:56 PM 36.0 °F 25.3 °F 17.1 °F 46% 30.09 in 10.0 mi NNW 19.6 mph 28.8 mph N/A   Clear
5:56 PM 33.1 °F 23.4 °F 14.0 °F 46% 30.12 in 10.0 mi NNW 13.8 mph - N/A   Clear
6:56 PM 30.9 °F 22.2 °F 17.1 °F 57% 30.15 in 10.0 mi NW 10.4 mph - N/A   Clear
7:56 PM 30.9 °F 22.2 °F 17.1 °F 57% 30.18 in 10.0 mi NW 10.4 mph - N/A   Clear
8:56 PM 28.0 °F 18.6 °F 17.1 °F 63% 30.19 in 10.0 mi West 10.4 mph - N/A   Clear
9:56 PM 28.0 °F 17.5 °F 16.0 °F 61% 30.21 in 10.0 mi West 12.7 mph - N/A   Clear
10:56 PM 28.0 °F 18.1 °F 16.0 °F 61% 30.23 in 10.0 mi West 11.5 mph - N/A   Clear
11:56 PM 25.0 °F 15.5 °F 16.0 °F 69% 30.23 in 10.0 mi West 9.2 mph - N/A   Partly Cloudy